OBJECT BS, 43822

Orbit data source: Space-Track

You're viewing an Uncataloged Satellite

Recently launched and/or uncataloged satellites may have evolving metadata. Metadata may include but not limited to: Owner, Maufacturer, Bus, Motor, and Mission.

OBJECT BS, 43822 is a satellite in SSO that was launched on Mon, 03 Dec 2018 UTC via an FALCON 9 launch vehicle from the Air Force Western Test Range (AFWTR). Unknown objects in Earth's orbit typically refer to objects detected orbiting the Earth but have not yet been identified or cataloged. These objects could be anything from previously untracked satellites, spent rocket stages, debris from satellite collisions, or even natural meteoroids temporarily captured by Earth's gravity.

Loading next visibility...
Identifier
43822, 2018-099BS
Orbit
SSO
Last TLE update
10 hours ago
Origin
Flag of TBDKRAU (TBD)
Manufacturer
Korea AeU
Mission
Amateur Technology
Bus & Motor
CUBESAT 2U, Unknown motor
Mass
2 kg wet, 2 kg dry
Launch date (UTC)
2018-12-03 (7 years ago)
Launch vehicle
FALCON 9
Launch site
Air Force Western Test Range (AFWTR)
Object type
Unknown
Shape & HBR
Box, 0.3 m
Radar Cross Section
0.025 m², Small (<0.1 m²)

Expand to show TLE details & history

TLE from 10 hours ago
0 OBJECT BS
1 43822U 18099BS  25199.57491685  .00003775  00000-0  23418-3 0  9990
2 43822  97.4828 252.2432 0009886  68.5762 291.6521 15.10278518355797
Epoch: 2025-07-18T13:47Z
TLE epoch observation values (Epoch: 2025-07-18T13:47:52.815Z)
Latitude
-0.00008°
Longitude
108.64873°
Altitude
535.908 km
Speed
7.596 km/s
True Right ascension
16h 48m 58s
True Declination
0° 00' 00"
Sunlit
Object was in full shadow at epoch
Visualization orbit readout
Latitude
10.81382°
Longitude
107.60933°
Altitude
533.853 km
Speed
7.599 km/s
Apparent Right ascension
19h 34m 20s
Apparent Declination
-22° 21' 43"
Sunlit
Object is in full shadow
Visualization observer readout
Local Sidereal Time
12:10:47
Azimuth
95.306° ESE
Elevation
-29.802°
Doppler factor
1
Orbital elements
Apogee altitude
539.164 km
Perigee altitude
525.5 km
Semi-major axis
6,910.469 km
Eccentricity
0.00099
Inclination
97.4828°
RAAN
252.2432°
Arg. of periapsis
68.5762°
True anomaly
291.54676°
Mean anomaly
291.6521°
Eccentric anomaly
291.59943°
Mean motion
3.77817 °/min
Orbital period
95.28 mins
BSTAR
0.00023418
Loading maneuver chart data...
Loading SW <> Apogee altitude chart data...
Loading historical data...
Loading historical data...
Loading historical data...
Loading historical data...
Loading historical data...
Loading historical data...
Loading historical data...
|